Meriden, CT

7:07 AM EDT on June 29, 2017 (GMT -0400)
Meriden Markham Municipal

Weather History for KMMK - December, 2012

Change the Weather History Date:

Tuesday, December 4, 2012

  Actual Average (KOXC) Record (KOXC)
Temperature  
Mean Temperature 44 °F -  
Max Temperature 57 °F 40 °F 68 °F (1998)
Min Temperature 30 °F 26 °F 10 °F (2000)
Degree Days  
Heating Degree Days 22    
Moisture  
Dew Point 41 °F    
Average Humidity 94    
Maximum Humidity 100    
Minimum Humidity 87    
Precipitation  
Precipitation 0.02 in - - ()
Sea Level Pressure  
Sea Level Pressure 30.23 in    
Wind  
Wind Speed 1 mph (South)    
Max Wind Speed 13 mph    
Max Gust Speed 21 mph    
Visibility 4 miles    
Events Rain    
Averages and records for this station are not official NWS values.
T = Trace of Precipitation, MM = Missing Value Source: NWS Daily Summary

Daily Weather History Graph

Daily Weather History Graph

Search for Another Location

Airport or City:

Trip Planner

Search our weather history database for the weather conditions in past years. The results will help you decide how hot, cold, wet, or windy it might be!

Date:

Astronomy

Dec. 04, 2012 Rise Set
Actual Time 7:01 AM EST 4:21 PM EST
Civil Twilight 6:30 AM EST 4:52 PM EST
Nautical Twilight 5:56 AM EST 5:27 PM EST
Astronomical Twilight 5:22 AM EST 6:00 PM EST
Moon 10:08 PM EST (12/4) 10:52 AM EST (12/4)
Length of Visible Light 10h 21m
Length of Day
9h 19m
Waning Gibbous, 69% of the Moon is Illuminated
Dec 4
Waning Gibbous
Dec 6
Last Quarter
Dec 13
New
Dec 20
First Quarter
Dec 28
Full

Hourly Weather History & Observations

Time (EST) Temp. Windchill Dew Point Humidity Pressure Visibility Wind Dir Wind Speed Gust Speed Precip Events Conditions
12:53 AM 32.0 °F - 30.9 °F 96% 30.29 in 2.0 mi Calm Calm - N/A   Clear
1:09 AM 33.8 °F - 32.0 °F 93% 30.29 in 4.0 mi Calm Calm - N/A   Clear
1:38 AM 30.2 °F - 28.4 °F 93% 30.29 in 2.5 mi Calm Calm - N/A   Clear
1:48 AM 30.2 °F - 30.2 °F 100% 30.29 in 3.0 mi Calm Calm - N/A   Clear
1:53 AM 30.9 °F - 30.0 °F 96% 30.30 in 3.0 mi Calm Calm - N/A   Clear
2:12 AM 30.2 °F - 30.2 °F 100% 30.30 in 2.5 mi Calm Calm - N/A   Clear
2:22 AM 30.2 °F - 28.4 °F 93% 30.30 in 0.8 mi Calm Calm - N/A   Clear
2:44 AM 30.2 °F - 28.4 °F 93% 30.29 in 0.8 mi Calm Calm - N/A   Mist
2:53 AM 30.9 °F 27.5 °F 28.9 °F 92% 30.30 in 0.8 mi WNW 3.5 mph - N/A   Mist
2:58 AM 30.2 °F - 30.2 °F 100% 30.30 in 1.2 mi Calm Calm - N/A   Scattered Clouds
3:01 AM 30.2 °F - 30.2 °F 100% 30.30 in 3.0 mi Calm Calm - N/A   Scattered Clouds
3:13 AM 30.2 °F - 30.2 °F 100% 30.30 in 1.8 mi Calm Calm - N/A   Scattered Clouds
3:30 AM 32.0 °F - 30.2 °F 93% 30.29 in 2.5 mi Calm Calm - N/A   Scattered Clouds
3:37 AM 32.0 °F - 30.2 °F 93% 30.30 in 3.0 mi Calm Calm - N/A   Scattered Clouds
3:53 AM 30.0 °F - 28.9 °F 96% 30.30 in 4.0 mi Calm Calm - N/A   Partly Cloudy
4:53 AM 30.9 °F - 28.9 °F 92% 30.29 in 4.0 mi Calm Calm - N/A   Partly Cloudy
5:53 AM 36.0 °F - 35.1 °F 97% 30.30 in 7.0 mi Calm Calm - N/A   Overcast
6:53 AM 37.0 °F - 36.0 °F 96% 30.31 in 7.0 mi Calm Calm - N/A   Overcast
7:19 AM 37.4 °F 34.9 °F 35.6 °F 93% 30.30 in 7.0 mi NNW 3.5 mph - N/A   Overcast
7:34 AM 37.4 °F - 35.6 °F 93% 30.30 in 6.0 mi Calm Calm - N/A   Overcast
7:53 AM 37.9 °F - 36.0 °F 93% 30.30 in 5.0 mi Calm Calm - 0.00 in Rain Light Rain
8:16 AM 37.4 °F - 37.4 °F 100% 30.30 in 6.0 mi Calm Calm - 0.00 in Rain Light Rain
8:26 AM 39.2 °F 37.0 °F 37.4 °F 93% 30.30 in 6.0 mi North 3.5 mph - 0.00 in   Overcast
8:53 AM 39.0 °F - 37.9 °F 96% 30.31 in 5.0 mi Calm Calm - 0.00 in   Overcast
9:53 AM 39.9 °F - 37.9 °F 93% 30.30 in 6.0 mi Calm Calm - 0.00 in Rain Light Rain
10:01 AM 41.0 °F - 37.4 °F 87% 30.29 in 4.0 mi Calm Calm - 0.00 in Rain Light Rain
10:32 AM 41.0 °F - 39.2 °F 93% 30.28 in 2.5 mi Calm Calm - 0.02 in Rain Rain
10:39 AM 41.0 °F - 39.2 °F 93% 30.28 in 4.0 mi Calm Calm - 0.02 in Rain Light Rain
10:53 AM 41.0 °F - 39.0 °F 93% 30.28 in 5.0 mi Calm Calm - 0.02 in Rain Light Rain
11:44 AM 42.8 °F - 39.2 °F 87% 30.24 in 5.0 mi Calm Calm - 0.00 in   Overcast
11:53 AM 43.0 °F - 41.0 °F 93% 30.25 in 5.0 mi Calm Calm - 0.00 in   Overcast
12:53 PM 45.0 °F - 43.0 °F 93% 30.22 in 4.0 mi Calm Calm - 0.00 in   Overcast
1:33 PM 46.4 °F - 44.6 °F 93% 30.19 in 2.5 mi Calm Calm - N/A   Overcast
1:53 PM 48.0 °F - 46.0 °F 93% 30.19 in 2.0 mi Calm Calm - N/A   Overcast
2:31 PM 50.0 °F - 48.2 °F 94% 30.17 in 2.5 mi Calm Calm - N/A   Overcast
2:53 PM 52.0 °F - 48.9 °F 89% 30.17 in 2.5 mi Calm Calm - N/A   Overcast
3:12 PM 51.8 °F - 48.2 °F 88% 30.17 in 3.0 mi Calm Calm - N/A   Overcast
3:32 PM 51.8 °F - 50.0 °F 94% 30.16 in 2.5 mi Calm Calm - N/A   Overcast
3:53 PM 54.0 °F - 53.1 °F 97% 30.16 in 3.0 mi Calm Calm - N/A   Overcast
4:12 PM 55.4 °F - 53.6 °F 94% 30.15 in 4.0 mi South 4.6 mph - N/A   Overcast
4:53 PM 55.9 °F - 54.0 °F 93% 30.15 in 7.0 mi South 6.9 mph - N/A   Overcast
5:13 PM 55.4 °F - 53.6 °F 94% 30.14 in 7.0 mi South 8.1 mph - N/A   Overcast
5:53 PM 55.9 °F - 54.0 °F 93% 30.13 in 7.0 mi South 9.2 mph 18.4 mph N/A   Overcast
6:12 PM 55.4 °F - 53.6 °F 94% 30.12 in 7.0 mi South 8.1 mph - N/A   Overcast
6:53 PM 55.9 °F - 54.0 °F 93% 30.12 in 7.0 mi South 8.1 mph - N/A   Overcast
7:03 PM 57.2 °F - 53.6 °F 88% 30.11 in 7.0 mi South 10.4 mph - N/A   Overcast
7:53 PM 55.9 °F - 54.0 °F 93% 30.09 in 7.0 mi South 12.7 mph 20.7 mph N/A   Overcast
8:03 PM 55.4 °F - 53.6 °F 94% 30.08 in 7.0 mi South 9.2 mph 20.7 mph N/A   Overcast
8:53 PM 55.9 °F - 53.1 °F 90% 30.06 in 6.0 mi South 10.4 mph - N/A   Overcast
9:53 PM 55.9 °F - 53.1 °F 90% 30.06 in 6.0 mi South 6.9 mph - N/A   Overcast
10:53 PM 55.0 °F - 53.1 °F 93% 30.03 in 6.0 mi South 5.8 mph - N/A   Overcast
11:53 PM 55.0 °F - 52.0 °F 89% 30.00 in 6.0 mi SSE 5.8 mph - N/A   Overcast